User: anonymous   Login
Location: Caltech
(34.1382°N, 118.1253°W)
Time: 07:06:48
(UTC-07:00)
Language:

JAS-2 - Orbit

View from above orbital plane
View from above orbital plane
View from above satellite
View from above satellite

Ground track
Ground track

The orbit data is extracted from the following two-line orbital elements,

1 24278U 96046B   16207.40134384 -.00000006  00000-0  27145-4 0  9991
2 24278  98.5848 127.6169 0351318 103.6333 260.4182 13.53069265984687
Epoch (UTC): 25 July 2016 09:37:56
Eccentricity: 0.0351318
inclination: 98.5848°
perigee height: 799 km
apogee height: 1322 km
right ascension of ascending node: 127.6169°
argument of perigee: 103.6333°
revolutions per day: 13.53069265
mean anomaly at epoch: 260.4182°
orbit number at epoch: 98468

The dashed part of the orbit path shows where the satellite is in the earth's shadow,  

DLR